Regional Weather Roundup
Issued by NWS Charleston, SC

Current Version | Previous Version | Graphics & Text | Print | Product List | Glossary On
Versions: 1 2 3 4 5 6 7 8 9 10 11 12 13 14 15 16 17 18 19 20 21 22 23 24 25 26 27 28 29 30 31 32 33 34 35 36 37 38 39 40 41 42 43 44 45 46 47 48 49 50
000 ASUS42 KCHS 230012 RWRCHS REGIONAL WEATHER ROUNDUP NATIONAL WEATHER SERVICE CHARLESTON SC 800 PM EDT TUE AUG 22 2017 NOTE: "FAIR" INDICATES FEW OR NO CLOUDS BELOW 12,000 FEET WITH NO SIGNIFICANT WEATHER AND/OR OBSTRUCTIONS TO VISIBILITY. NOT ALL STATIONS ARE QUALITY CONTROLLED. USE DATA WITH CAUTION... ESPECIALLY DEWPOINT OBSERVATIONS. SCZ027-030-031-034>040-042>050-230100- ...SOUTHEAST SOUTH CAROLINA... CITY SKY/WX TMP DP RH WIND PRES REMARKS N CHARLESTON PTCLDY 81 74 79 SW8 29.99F 6HR MIN TEMP: 80; 6HR MAX TEMP: 90; 6HR PCP: 0.19; WATERFRONT PRK N/A 84 77 79 SW6 29.84F HX 94 JOHNS ISLAND FAIR 82 75 78 SW6 30.00S PINOPOLIS N/A 84 77 79 VRB3 29.92S HX 94 MONCKS CORNER FAIR 81 75 83 S6 29.99S SUMMERVILLE MOCLDY 81 77 89 S3 30.00S BEAUFORT MCAS CLOUDY 83 78 85 S7 29.99F HX 93 6HR MIN TEMP: 82; 6HR MAX TEMP: 91; BEAUFORT ARPT FAIR 81 73 78 SW5 29.99F HILTON HEAD IS PTCLDY 82 77 83 S9 30.00F HX 91 WALTERBORO CLEAR 81 75 83 S9 30.00S ALLENDALE NOT AVBL ...SOUTHERN MIDLANDS AND PEE DEE... CITY SKY/WX TMP DP RH WIND PRES REMARKS GEORGETOWN FAIR 79 75 89 S6 30.00F KINGSTREE FAIR 79 77 94 SE3 29.98F ORANGEBURG CLEAR 83 72 69 S5 29.98F 6HR MIN TEMP: 82; 6HR MAX TEMP: 90; BARNWELL FAIR 88 75 66 CALM 29.98S HX 97 AIKEN FAIR 81 72 74 SW6 30.03R MANNING FAIR 81 66 61 S7 29.98S COLUMBIA PTCLDY 88 71 57 S6 29.96R HX 94 6HR MIN TEMP: 88; 6HR MAX TEMP: 94; SUMTER CLEAR 85 73 66 S7 29.95S HX 92 6HR MIN TEMP: 85; 6HR MAX TEMP: 94; FLORENCE CLEAR 82 74 76 S8 29.98S 6HR MIN TEMP: 82; 6HR MAX TEMP: 91; MYRTLE BEACH CLEAR 84 75 74 S10 30.00S HX 92 N MYRTLE BEACH CLOUDY 83 75 77 SW14 29.99R HX 90 6HR MIN TEMP: 83; 6HR MAX TEMP: 86; $$ GAZ063-065-086>088-099>101-113>116-118-119-134>141-150-230100- ...SOUTHEAST GEORGIA... CITY SKY/WX TMP DP RH WIND PRES REMARKS SAVANNAH ARPT CLOUDY 82 75 79 S8 30.01F 6HR MIN TEMP: 80; 6HR MAX TEMP: 88; 6HR PCP: 0.02; HUNTER AAF MOCLDY 82 76 81 S5 29.98S 6HR MIN TEMP: 80; 6HR MAX TEMP: 89; 6HR PCP: TRACE; FORT STEWART MOCLDY 80 74 82 S3 29.99S 6HR MIN TEMP: 80; 6HR MAX TEMP: 87; STATESBORO CLOUDY 84 71 63 S5 30.00S SYLVANIA CLEAR 83 78 82 CALM 30.01S HX 93 CLAXTON FAIR 84 77 79 CALM 30.00S HX 94 ...CSRA...CENTRAL AND FAR SOUTHEAST GEORGIA... CITY SKY/WX TMP DP RH WIND PRES REMARKS THOMSON MOCLDY 79 76 92 W5 30.04F AUGUSTA-BUSH PTCLDY 84 75 74 W3 29.97F HX 92 6HR MIN TEMP: 84; 6HR MAX TEMP: 94; 6HR PCP: TRACE; AUGUSTA-DANIEL MOCLDY 85 71 63 VRB3 30.00S HX 90 SWAINSBORO CLOUDY 84 73 70 CALM 30.01S HX 91 VIDALIA CLOUDY 81 75 83 CALM 30.01R EASTMAN FAIR 83 67 58 CALM 30.03F HAZLEHURST FAIR 83 68 60 CALM 29.99F ALMA PTCLDY 84 77 79 SE3 30.00S HX 94 6HR MIN TEMP: 82; 6HR MAX TEMP: 94; 6HR PCP: 0.06; WAYCROSS CLOUDY 81 74 80 S6 30.00F JESUP NOT AVBL BAXLEY FAIR 81 79 94 CALM 30.01R BRUNSWICK CLOUDY 79 73 83 CALM 30.02S SAINT SIMONS CLOUDY 83 74 74 S6 30.01S 6HR MIN TEMP: 81; 6HR MAX TEMP: 89; 6HR PCP: TRACE; $$ SCZ027-028-034-036>038-045-046-048>050-GAZ119-141-230100- ...LAKE AND SUPPLEMENTAL COASTAL OBSERVATIONS... STATION/POSITION TIME TEMP WIND PRES WAVE SWELL AIR SEA DIR/SP/G HT/PER HT/PER/DIR (UTC) (F) (DEG/KT/KT) (MB) (FT/S) (FT/S/D) WINYAH BAY 2245 85 210/ 9 1016.0 LAKE MURRAY 2320 86 300/ 2/ 7 1013.5S ACE BASIN NERRS 2245 83 180/ 1 1016.0 FORT PULASKI 2342 84 87 200/ 5/ 8 1016.4F SAPELO ISLAND 2300 83 210/ 5 1016.0 $$ ANZ835-935-AMZ111-154-330-350-352-354-370-450-454-472-230100- ...C-MAN AND BUOY OBSERVATIONS... STATION/POSITION TIME TEMP WIND PRES WAVE SWELL AIR SEA DIR/SP/G HT/PER HT/PER/DIR (UTC) (F) (DEG/KT/KT) (MB) (FT/S) (FT/S/D) BUOY 41004 2350 83 85 200/ 12/ 14 1015.4F 5/ 9 5/150/ 9 BUOY 41008 2250 84 86 170/ 10/ 12 1016.1 4/ 9 3/110/ 9 FOLLY BEACH CMAN 2300 83 210/ 14/ 16 1016.5F CAPERS NEARSHORE 2308 82 86 220/ 14/ 19 1015.8F FRIPP NEARSHORE 2308 84 210/ 14/ 17 1015.4F STATION/POSITION TIME TEMP WIND PRES WAVE SWELL AIR SEA DIR/SP/G HT/PER HT/PER/DIR (UTC) (F) (DEG/KT/KT) (MB) (FT/S) (FT/S/D) 5E ST. MARYS GA 2330 85 N/A 4/ 9 2/110/11 FRYING PAN BUOY 2350 83 85 200/ 12/ 14 1015.5F 3/10 3/130/10 BUOY 41025 2350 84 86 210/ 17/ 19 1015.1S 4/ 9 3/140/ 9 CAPE LOOKOUT NC 2300 83 190/ 12/ 16 1015.1F BUOY 41002 2250 83 85 140/ 6/ 8 1017.3 4/ 9 5/110/ 9 BUOY 41010 2350 84 85 90/ 10/ 12 1016.1F 4/11 3/110/11 ST AUGUSTINE FL 0000 83 84 130/ 9/ 10 1016.7F $$

USA.gov is the U.S. government's official web portal to all federal, state and local government web resources and services.